Flag for Lithuania Weather past 2 weeks in Vilnius, Lithuania

Now
50 °F

Fog.


Feels Like: 46 °F
Forecast: 35 / 53 °F
Wind: 9 mph from West

Location: Vilnius Airport

Current Time: Sep 23, 2014 at 10:29:41 AM

Latest Report: Sep 23, 2014 at 9:58 AM


Visibility: 1 mi

Pressure: 29.53 "Hg

Humidity: 100%

Dew point: 50 °F

Location of VilniusLocation

Historic Weather in Vilnius — Graph

°F

Vilnius temperature yesterday

Maximum temperature yesterday: 57 °F (at 1:50 PM)
Minimum temperature yesterday: 46 °F (at 1:20 AM)
Average temperature yesterday: 54 °F

Past Weeks' High & Low Weather Summary

 TemperatureHumidityPressure
High75 °F (Sep 12, 2:50 PM)100% (Sep 9, 8:50 PM)30.39 "Hg (Sep 9, 8:50 PM)
Low41 °F (Sep 15, 5:20 AM)31% (Sep 13, 2:20 PM)29.50 "Hg (Sep 23, 4:50 AM)
Average58 °F77%30.11 "Hg
* Reported Sep 8 9:20 AM — Sep 23 9:20 AM, Vilnius, Weather by CustomWeather, © 2014

Note: Actual official high and low records may vary slightly from our data, if they occured in-between our weather recording intervals... More about our weather records

Advertising

Vilnius weather history for previous 24 hours

 ConditionsComfort  
Time TempWeatherWind HumidityBarometerVisibility
9:20 AM
Sep 23
50 °FFog.9 mph94%29.53 "Hg2 mi
8:50 AM50 °FFog.10 mph94%29.50 "Hg2 mi
8:20 AM50 °FFog.10 mph94%29.50 "Hg2 mi
7:50 AM50 °FLight rain. Fog.8 mph94%29.50 "Hg2 mi
7:20 AM50 °FRain. Fog.9 mph94%29.53 "Hg2 mi
6:50 AM50 °FFog.9 mph94%29.50 "Hg2 mi
6:20 AM50 °FLight rain. Fog.10 mph94%29.50 "Hg2 mi
5:50 AM50 °FLight rain. Fog.9 mph94%29.50 "Hg2 mi
5:20 AM52 °FFog.7 mph94%29.50 "Hg2 mi
4:50 AM52 °FFog.7 mph94%29.50 "Hg2 mi
4:20 AM52 °FFog.7 mph94%29.53 "Hg2 mi
3:50 AM52 °FFog.8 mph94%29.53 "Hg2 mi
3:20 AM52 °FFog.8 mph100%29.53 "Hg2 mi
2:50 AM54 °FFog.9 mph94%29.53 "Hg2 mi
2:20 AM54 °FFog.8 mph94%29.53 "Hg2 mi
1:50 AM54 °FSprinkles. Fog.8 mph94%29.53 "Hg2 mi
1:20 AM54 °FSprinkles. Fog.8 mph94%29.53 "Hg2 mi
12:50 AM54 °FSprinkles. Fog.9 mph94%29.53 "Hg2 mi
12:20 AM54 °FSprinkles. Fog.8 mph94%29.53 "Hg2 mi
11:50 PM
Sep 22
54 °FSprinkles. Fog.10 mph94%29.53 "Hg2 mi
11:20 PM54 °FSprinkles. Fog.8 mph94%29.53 "Hg2 mi
10:50 PM54 °FRain showers. Fog.7 mph94%29.53 "Hg2 mi
10:20 PM54 °FRain showers. Fog.10 mph94%29.56 "Hg2 mi
9:50 PM54 °FRain showers. Fog.10 mph100%29.53 "Hg2 mi
9:20 PM55 °FRain showers. Fog.8 mph94%29.53 "Hg2 mi
8:50 PM55 °FRain showers. Fog.9 mph94%29.53 "Hg2 mi
8:20 PM55 °FRain showers. Fog.7 mph94%29.53 "Hg2 mi
7:50 PM55 °FRain showers. Fog.7 mph94%29.53 "Hg2 mi
7:20 PM55 °FRain showers. Fog.6 mph94%29.56 "Hg2 mi
6:50 PM55 °FRain showers. Fog.7 mph100%29.53 "Hg2 mi
6:20 PM55 °FRain showers. Fog.6 mph100%29.53 "Hg2 mi
5:50 PM55 °FRain showers. Fog.8 mph100%29.53 "Hg1 mi
5:20 PM57 °FLight rain. Fog.3 mph94%29.53 "Hg2 mi
4:50 PM57 °FFog.5 mph94%29.53 "Hg2 mi
4:20 PM57 °FFog.6 mph94%29.53 "Hg2 mi
3:50 PM57 °FLight rain. Fog.6 mph94%29.56 "Hg1 mi
3:20 PM57 °FLight rain. Fog.8 mph94%29.56 "Hg2 mi
2:50 PM57 °FFog.10 mph94%29.56 "Hg2 mi
2:20 PM57 °FFog.10 mph94%29.56 "Hg2 mi
1:50 PM57 °FLight rain. Fog.10 mph94%29.56 "Hg2 mi
1:20 PM55 °FRain. Fog.12 mph100%29.56 "Hg2 mi
12:50 PM55 °FRain. Fog.10 mph94%29.56 "Hg2 mi
12:20 PM55 °FRain. Fog.10 mph94%29.56 "Hg2 mi
11:50 AM55 °FRain. Fog.13 mph94%29.56 "Hg2 mi
11:20 AM55 °FRain. Fog.10 mph94%29.56 "Hg1 mi
10:58 AM55 °FRain. Fog.12 mph94%29.56 "Hg2 mi
10:20 AM55 °FLight rain. Fog.12 mph94%29.56 "Hg2 mi
Weather by CustomWeather, © 2014

See weather overviewHow to use our weather pages